When you browse on this site, cookies collect data to enhance your experience and personalize the content and advertising you see.
Visit our Privacy Policy to learn more. By continuing to use the site, you agree to this use of cookies and data.
  • In Czech Republic
  • List of Countries
  • For 7 days
  • Water Temperature
  • Satellite Maps
  • Weather Map
  • Weather Widgets
  • user-avatar
    Login

    Hourly Weather Albany

    Today, 19 January, Saturday

    Time Temperature Precipitation Wind Pressure Humidity
    00:00 +15°C° 0 mm 4 mps 761 mmHg 81%
    01:00 +14°C° 0 mm 4 mps 761 mmHg 82%
    02:00 +14°C° 0 mm 3 mps 761 mmHg 84%
    03:00 +14°C° 0 mm 3 mps 761 mmHg 85%
    04:00 +13°C° 0 mm 3 mps 761 mmHg 86%
    05:00 +13°C° 0 mm 3 mps 761 mmHg 87%
    06:00 +16°C° 0 mm 3 mps 761 mmHg 76%
    07:00 +18°C° 0 mm 3 mps 761 mmHg 66%
    08:00 +21°C° 0 mm 4 mps 761 mmHg 57%
    09:00 +25°C° 0 mm 4 mps 761 mmHg 49%
    10:00 +27°C° 0 mm 3 mps 761 mmHg 42%
    11:00 +30°C° 0 mm 3 mps 760 mmHg 34%
    12:00 +32°C° 0 mm 4 mps 760 mmHg 36%
    13:00 +32°C° 0 mm 5 mps 759 mmHg 37%
    14:00 +33°C° 0 mm 5 mps 759 mmHg 38%
    15:00 +30°C° 0 mm 6 mps 758 mmHg 44%
    16:00 +28°C° 0 mm 6 mps 758 mmHg 51%
    17:00 +27°C° 0 mm 6 mps 758 mmHg 58%
    18:00 +25°C° 0 mm 5 mps 758 mmHg 64%
    19:00 +22°C° 0 mm 5 mps 759 mmHg 70%
    20:00 +21°C° 0 mm 4 mps 759 mmHg 76%
    21:00 +20°C° 0 mm 4 mps 759 mmHg 78%
    22:00 +20°C° 0 mm 4 mps 759 mmHg 80%
    23:00 +20°C° 0 mm 4 mps 759 mmHg 82%

    Tomorrow, 20 January, Sunday

    Time Temperature Precipitation Wind Pressure Humidity
    00:00 +19°C° 0 mm 3 mps 759 mmHg 83%
    01:00 +19°C° 0 mm 3 mps 758 mmHg 85%
    02:00 +19°C° 0 mm 3 mps 758 mmHg 87%
    03:00 +19°C° 0 mm 3 mps 758 mmHg 87%
    04:00 +19°C° 0 mm 3 mps 757 mmHg 88%
    05:00 +19°C° 0 mm 3 mps 757 mmHg 88%
    06:00 +21°C° 0 mm 3 mps 757 mmHg 77%
    07:00 +24°C° 0 mm 3 mps 757 mmHg 67%
    08:00 +26°C° 0 mm 3 mps 757 mmHg 56%
    09:00 +30°C° 0 mm 3 mps 757 mmHg 47%
    10:00 +34°C° 0 mm 3 mps 756 mmHg 38%
    11:00 +38°C° 0 mm 3 mps 756 mmHg 29%
    12:00 +36°C° 0 mm 4 mps 756 mmHg 34%
    13:00 +35°C° 0 mm 4 mps 755 mmHg 39%
    14:00 +34°C° 0 mm 5 mps 755 mmHg 43%
    15:00 +33°C° 0 mm 4 mps 754 mmHg 47%
    16:00 +30°C° 0 mm 4 mps 754 mmHg 50%
    17:00 +29°C° 0 mm 3 mps 754 mmHg 53%
    18:00 +27°C° 0 mm 3 mps 754 mmHg 61%
    19:00 +25°C° 0 mm 2 mps 755 mmHg 68%
    20:00 +23°C° 0 mm 2 mps 755 mmHg 76%
    21:00 +21°C° 0 mm 2 mps 755 mmHg 79%
    22:00 +21°C° 0 mm 2 mps 755 mmHg 83%
    23:00 +20°C° 0 mm 2 mps 755 mmHg 86%

    Day after tomorrow, 21 January, Monday

    Time Temperature Precipitation Wind Pressure Humidity
    00:00 +20°C° 0 mm 2 mps 754 mmHg 87%
    01:00 +20°C° 0 mm 2 mps 754 mmHg 88%
    02:00 +19°C° 0 mm 2 mps 753 mmHg 90%
    03:00 +19°C° 0 mm 2 mps 753 mmHg 91%
    04:00 +19°C° 0 mm 2 mps 753 mmHg 92%
    05:00 +19°C° 0 mm 2 mps 753 mmHg 94%
    06:00 +20°C° 0 mm 3 mps 753 mmHg 86%
    07:00 +22°C° 0 mm 3 mps 754 mmHg 79%
    08:00 +24°C° 0 mm 3 mps 754 mmHg 72%
    09:00 +25°C° 0 mm 3 mps 754 mmHg 65%
    10:00 +27°C° 0 mm 4 mps 754 mmHg 58%
    11:00 +28°C° 0 mm 4 mps 754 mmHg 51%
    12:00 +28°C° 0 mm 5 mps 754 mmHg 50%
    13:00 +28°C° 0 mm 5 mps 753 mmHg 49%
    14:00 +28°C° 0 mm 6 mps 753 mmHg 47%
    15:00 +27°C° 0 mm 6 mps 753 mmHg 51%
    16:00 +24°C° 0 mm 7 mps 753 mmHg 54%
    17:00 +23°C° 0 mm 7 mps 753 mmHg 58%
    18:00 +22°C° 0 mm 6 mps 754 mmHg 66%
    19:00 +21°C° 0 mm 5 mps 754 mmHg 74%
    20:00 +19°C° 0 mm 3 mps 755 mmHg 82%
    21:00 +19°C° 0 mm 3 mps 755 mmHg 84%
    22:00 +19°C° 0 mm 3 mps 755 mmHg 85%
    23:00 +19°C° 0 mm 3 mps 755 mmHg 87%

    22 January, Tuesday

    Time Temperature Precipitation Wind Pressure Humidity
    00:00 +19°C° 0.1 mm 3 mps 755 mmHg 88%
    01:00 +18°C° 0.1 mm 3 mps 755 mmHg 88%
    02:00 +18°C° 0.1 mm 3 mps 754 mmHg 89%
    03:00 +18°C° 0.1 mm 4 mps 754 mmHg 89%
    04:00 +18°C° 0.1 mm 4 mps 754 mmHg 89%
    05:00 +17°C° 0.1 mm 5 mps 754 mmHg 89%
    06:00 +17°C° 0.1 mm 5 mps 754 mmHg 88%
    07:00 +17°C° 0.1 mm 5 mps 754 mmHg 87%
    08:00 +19°C° 0.1 mm 6 mps 755 mmHg 86%
    09:00 +17°C° 0.2 mm 6 mps 755 mmHg 85%
    10:00 +17°C° 0.2 mm 6 mps 755 mmHg 85%
    11:00 +17°C° 0.2 mm 6 mps 755 mmHg 85%
    12:00 +17°C° 0.2 mm 6 mps 754 mmHg 85%
    13:00 +17°C° 0.2 mm 6 mps 754 mmHg 86%
    14:00 +17°C° 0.2 mm 7 mps 754 mmHg 86%
    15:00 +17°C° 0.3 mm 7 mps 753 mmHg 86%
    16:00 +17°C° 0.3 mm 7 mps 753 mmHg 87%
    17:00 +17°C° 0.3 mm 7 mps 753 mmHg 87%
    18:00 +17°C° 0.4 mm 7 mps 752 mmHg 87%
    19:00 +17°C° 0.4 mm 7 mps 752 mmHg 86%
    20:00 +18°C° 0.4 mm 8 mps 752 mmHg 86%
    21:00 +18°C° 0.3 mm 7 mps 752 mmHg 86%
    22:00 +19°C° 0.3 mm 6 mps 751 mmHg 86%
    23:00 +19°C° 0.3 mm 6 mps 751 mmHg 85%

    23 January, Wednesday

    Time Temperature Precipitation Wind Pressure Humidity
    00:00 +19°C° 0.1 mm 6 mps 750 mmHg 87%
    01:00 +17°C° 0.1 mm 6 mps 749 mmHg 88%
    02:00 +17°C° 0.1 mm 6 mps 749 mmHg 90%
    03:00 +17°C° 1.3 mm 5 mps 748 mmHg 91%
    04:00 +18°C° 1.3 mm 4 mps 747 mmHg 92%
    05:00 +18°C° 1.3 mm 2 mps 747 mmHg 93%
    06:00 +18°C° 1.8 mm 3 mps 746 mmHg 91%
    07:00 +18°C° 1.8 mm 3 mps 746 mmHg 88%
    08:00 +19°C° 1.8 mm 4 mps 746 mmHg 85%
    09:00 +19°C° 0.1 mm 4 mps 745 mmHg 78%
    10:00 +20°C° 0.1 mm 5 mps 745 mmHg 72%
    11:00 +21°C° 0.1 mm 6 mps 744 mmHg 65%
    12:00 +21°C° 0.3 mm 5 mps 744 mmHg 65%
    13:00 +22°C° 0.3 mm 4 mps 743 mmHg 64%
    14:00 +22°C° 0.3 mm 4 mps 743 mmHg 64%
    15:00 +21°C° 1.4 mm 7 mps 743 mmHg 71%
    16:00 +18°C° 1.4 mm 11 mps 744 mmHg 78%
    17:00 +17°C° 1.4 mm 14 mps 744 mmHg 85%
    18:00 +17°C° 3.5 mm 14 mps 745 mmHg 86%
    19:00 +15°C° 3.5 mm 14 mps 746 mmHg 86%
    20:00 +15°C° 3.5 mm 13 mps 747 mmHg 86%
    21:00 +15°C° 1 mm 13 mps 748 mmHg 85%
    22:00 +15°C° 1 mm 13 mps 749 mmHg 85%
    23:00 +15°C° 1 mm 12 mps 750 mmHg 84%

    24 January, Thursday

    Time Temperature Precipitation Wind Pressure Humidity
    00:00 +14°C° 0.2 mm 12 mps 751 mmHg 84%
    01:00 +14°C° 0.2 mm 11 mps 751 mmHg 83%
    02:00 +14°C° 0.2 mm 11 mps 751 mmHg 83%
    03:00 +14°C° 0.2 mm 11 mps 752 mmHg 83%
    04:00 +14°C° 0.2 mm 10 mps 752 mmHg 82%
    05:00 +14°C° 0.2 mm 10 mps 753 mmHg 82%
    06:00 +15°C° 0.1 mm 9 mps 754 mmHg 82%
    07:00 +15°C° 0.1 mm 8 mps 755 mmHg 81%
    08:00 +15°C° 0.1 mm 7 mps 756 mmHg 81%
    09:00 +15°C° 0.1 mm 7 mps 756 mmHg 79%
    10:00 +15°C° 0.1 mm 7 mps 756 mmHg 76%
    11:00 +15°C° 0.1 mm 7 mps 757 mmHg 74%
    12:00 +16°C° 0.1 mm 7 mps 757 mmHg 71%
    13:00 +16°C° 0.1 mm 7 mps 757 mmHg 69%
    14:00 +16°C° 0.1 mm 6 mps 757 mmHg 66%
    15:00 +16°C° 0 mm 6 mps 757 mmHg 66%
    16:00 +16°C° 0 mm 5 mps 758 mmHg 67%
    17:00 +15°C° 0 mm 5 mps 758 mmHg 67%
    18:00 +15°C° 0 mm 4 mps 758 mmHg 68%
    19:00 +15°C° 0 mm 4 mps 758 mmHg 69%
    20:00 +16°C° 0 mm 3 mps 759 mmHg 70%
    21:00 +16°C° 0 mm 3 mps 759 mmHg 71%
    22:00 +15°C° 0 mm 2 mps 759 mmHg 71%
    23:00 +15°C° 0 mm 2 mps 759 mmHg 71%
    Show more